20050702,000016,271922,33.144413,-117.480728,17.536,33.395,2.066,4.299
20050702,000045,271950,33.142908,-117.480936,17.585,33.401,2.145,4.492
20050702,000115,271980,33.141445,-117.481105,17.596,33.436,2.034,4.108
20050702,000145,272011,33.139933,-117.481311,17.573,33.457,1.944,3.823
20050702,000215,272041,33.138422,-117.481511,17.622,33.423,1.928,3.762
20050702,000245,272071,33.136908,-117.481688,17.617,33.452,1.865,3.581
20050702,000316,272102,33.135358,-117.481900,17.538,33.497,1.811,3.436
20050702,000345,272130,33.133895,-117.482086,17.529,33.464,1.769,3.321
20050702,000415,272161,33.132385,-117.482275,17.557,33.444,1.679,3.088
20050702,000446,272191,33.130830,-117.482466,17.577,33.445,1.716,3.200
20050702,000515,272221,33.129378,-117.482670,17.564,33.456,1.663,3.061
20050702,000545,272251,33.127818,-117.482883,17.601,33.434,1.721,3.209
20050702,000615,272280,33.126363,-117.483070,17.563,33.479,1.694,3.133
20050702,000646,272312,33.124802,-117.483293,17.457,33.530,1.604,2.901
20050702,000715,272341,33.123337,-117.483490,17.413,33.488,1.588,2.853
20050702,000745,272371,33.121820,-117.483691,17.533,33.399,1.742,3.264
20050702,000816,272401,33.120258,-117.483915,17.590,33.422,1.758,3.337
20050702,000845,272431,33.118795,-117.484111,17.574,33.455,1.785,3.382
20050702,000915,272460,33.117227,-117.484306,17.469,33.510,1.849,3.538
20050702,000945,272490,33.115768,-117.484543,17.488,33.442,2.066,4.123
20050702,001015,272521,33.114267,-117.484831,17.662,33.353,2.340,4.916
20050702,001046,272551,33.112702,-117.485113,17.795,33.357,2.833,6.492
20050702,001116,272582,33.111187,-117.485380,17.799,33.423,2.906,6.752
20050702,001145,272610,33.109673,-117.485628,17.822,33.423,2.885,6.708
20050702,001215,272640,33.108280,-117.485235,17.861,33.425,2.718,6.187
20050702,001245,272671,33.106967,-117.484548,17.878,33.427,2.660,6.032
20050702,001315,272701,33.105555,-117.483883,17.892,33.434,2.660,6.053
20050702,001345,272731,33.104085,-117.483181,17.951,33.409,2.733,6.309
20050702,001415,272761,33.102713,-117.482505,18.026,33.399,2.984,7.171
20050702,001445,272790,33.101245,-117.481803,18.103,33.394,2.791,6.522
20050702,001516,272822,33.099812,-117.481175,18.174,33.395,2.497,5.585
20050702,001545,272851,33.098453,-117.480546,18.281,33.375,1.976,4.005
20050702,001615,272881,33.097050,-117.479911,18.287,33.447,1.758,3.384
20050702,001645,272911,33.095635,-117.479271,17.938,33.627,1.939,3.846
20050702,001715,272941,33.094223,-117.478641,17.797,33.543,1.795,3.404
20050702,001745,272970,33.092807,-117.478018,17.938,33.401,1.806,3.403
20050702,001816,273002,33.091345,-117.477365,18.031,33.394,1.811,3.397
20050702,001845,273031,33.089933,-117.476710,18.108,33.391,1.822,3.414
20050702,001915,273061,33.088527,-117.476058,18.210,33.391,1.827,3.422
20050702,001945,273091,33.087120,-117.475400,18.268,33.404,1.769,3.270
20050702,002015,273120,33.085712,-117.474720,18.393,33.377,1.753,3.239
20050702,002045,273150,33.084298,-117.474065,18.471,33.393,1.822,3.444
20050702,002115,273181,33.082883,-117.473425,18.593,33.380,1.806,3.421
20050702,002145,273211,33.081522,-117.472796,18.636,33.411,1.811,3.446
20050702,002216,273241,33.080055,-117.472143,18.614,33.463,1.779,3.358
20050702,002246,273272,33.078648,-117.471460,18.620,33.441,2.592,5.808
20050702,002316,273302,33.077175,-117.470806,18.628,33.450,2.044,4.149
20050702,002346,273332,33.075802,-117.470195,18.668,33.430,1.833,3.483
20050702,002416,273362,33.074327,-117.469543,18.685,33.442,1.742,3.200
20050702,002446,273391,33.072965,-117.468931,18.691,33.449,1.774,3.260
20050702,002516,273422,33.071490,-117.468291,18.642,33.484,1.737,3.149
20050702,002546,273452,33.070120,-117.467660,18.526,33.523,1.870,3.506
20050702,002616,273482,33.068698,-117.467025,18.608,33.427,1.875,3.536
20050702,002646,273512,33.067235,-117.466363,18.722,33.398,1.891,3.603
20050702,002716,273541,33.065870,-117.465736,18.767,33.418,1.870,3.561
20050702,002746,273571,33.064403,-117.465053,18.814,33.421,1.970,3.837
20050702,002816,273602,33.063035,-117.464400,18.848,33.425,1.960,3.801
20050702,002846,273632,33.061617,-117.463730,18.884,33.417,2.029,3.992
20050702,002917,273662,33.060157,-117.463033,18.905,33.421,2.171,4.397
20050702,002946,273692,33.058790,-117.462411,18.929,33.419,2.055,4.056
20050702,003017,273723,33.057332,-117.461736,18.949,33.421,2.044,4.022
20050702,003047,273753,33.055925,-117.461085,18.957,33.431,2.029,3.966
20050702,003117,273782,33.054462,-117.460413,18.945,33.452,1.944,3.705
20050702,003148,273814,33.053055,-117.459746,18.932,33.466,1.954,3.706
20050702,003217,273843,33.051633,-117.459100,18.878,33.501,1.954,3.685
20050702,003247,273873,33.050257,-117.458481,18.872,33.472,1.970,3.720
20050702,003317,273903,33.048790,-117.457815,18.908,33.447,2.023,3.868
20050702,003348,273934,33.047362,-117.457171,18.918,33.451,2.097,4.085
20050702,003417,273962,33.045995,-117.456541,18.937,33.449,2.081,4.051
20050702,003447,273992,33.044523,-117.455880,18.926,33.463,2.113,4.142
20050702,003517,274023,33.043097,-117.455251,18.941,33.451,2.108,4.108
20050702,003547,274053,33.041662,-117.454618,18.932,33.466,2.050,3.919
20050702,003617,274083,33.040227,-117.453991,18.943,33.446,2.076,3.965
20050702,003647,274113,33.038787,-117.453361,18.974,33.445,2.113,4.039
20050702,003718,274144,33.037343,-117.452725,18.978,33.450,2.139,4.090
20050702,003748,274174,33.035902,-117.452095,19.014,33.436,2.129,4.047
20050702,003817,274203,33.034458,-117.451465,19.032,33.442,2.171,4.158
20050702,003848,274233,33.033017,-117.450821,19.070,33.436,2.171,4.153
20050702,003919,274265,33.031527,-117.450178,19.079,33.448,2.145,4.075
20050702,003948,274294,33.030085,-117.449553,19.065,33.463,2.092,3.924
20050702,004018,274324,33.028642,-117.448911,19.073,33.452,2.092,3.917
20050702,004048,274354,33.027208,-117.448265,19.096,33.442,2.050,3.801
20050702,004119,274385,33.025763,-117.447616,19.113,33.444,2.071,3.859
20050702,004148,274413,33.024332,-117.446981,19.121,33.452,2.071,3.860
20050702,004218,274444,33.022940,-117.446361,19.086,33.476,1.923,3.464
20050702,004248,274474,33.021462,-117.445688,19.066,33.472,1.896,3.389
20050702,004318,274504,33.020025,-117.445045,19.082,33.455,1.886,3.352
20050702,004349,274535,33.018597,-117.444406,19.094,33.451,1.912,3.410
20050702,004418,274563,33.017208,-117.443781,19.101,33.454,1.843,3.224
20050702,004448,274594,33.015778,-117.443131,19.086,33.465,1.822,3.161
20050702,004518,274624,33.014300,-117.442446,19.092,33.455,1.849,3.219
20050702,004549,274654,33.012873,-117.441798,19.096,33.455,1.843,3.196
20050702,004619,274685,33.011452,-117.441135,19.096,33.456,1.822,3.134
20050702,004650,274715,33.010002,-117.440390,19.092,33.462,1.806,3.088
20050702,004720,274746,33.008592,-117.439683,19.059,33.479,1.774,3.008
20050702,004750,274776,33.007187,-117.438975,19.015,33.486,1.838,3.166
20050702,004820,274806,33.005777,-117.438260,18.996,33.468,1.939,3.422
20050702,004850,274836,33.004367,-117.437555,19.016,33.452,1.859,3.223
20050702,004920,274865,33.002945,-117.436840,19.022,33.449,1.912,3.347
20050702,004949,274895,33.001527,-117.436131,19.024,33.453,1.912,3.352
20050702,005020,274926,33.000105,-117.435430,18.978,33.479,1.944,3.439
20050702,005050,274956,32.998676,-117.434728,18.966,33.467,1.875,3.263
20050702,005120,274986,32.997258,-117.434023,18.941,33.468,1.806,3.084
20050702,005150,275016,32.995786,-117.433300,18.906,33.479,1.753,2.954
20050702,005221,275047,32.994358,-117.432596,18.874,33.476,1.769,2.986
20050702,005250,275075,32.992931,-117.431891,18.794,33.501,1.620,2.621
20050702,005320,275106,32.991551,-117.431206,18.621,33.543,1.530,2.393
20050702,005351,275136,32.990071,-117.430476,18.536,33.513,1.466,2.241
20050702,005420,275166,32.988686,-117.429795,18.424,33.527,1.455,2.229
20050702,005450,275196,32.987256,-117.429086,18.390,33.492,1.444,2.203
20050702,005520,275225,32.985821,-117.428386,18.285,33.511,1.386,2.076
20050702,005550,275256,32.984388,-117.427678,18.214,33.492,1.375,2.055
20050702,005620,275286,32.982953,-117.426965,18.227,33.445,1.369,2.046
20050702,005650,275316,32.981518,-117.426260,18.195,33.463,1.359,2.026
20050702,005721,275347,32.980030,-117.425528,18.208,33.440,1.343,1.994
20050702,005750,275375,32.978588,-117.424815,18.166,33.470,1.321,1.948
20050702,005821,275407,32.977141,-117.424103,18.050,33.512,1.321,1.946
20050702,005851,275437,32.975691,-117.423391,18.041,33.454,1.353,2.011
20050702,005921,275466,32.974241,-117.422675,18.018,33.463,1.321,1.943
20050702,005951,275496,32.972793,-117.421961,18.052,33.417,1.327,1.954
20050702,010020,275526,32.971410,-117.421248,18.091,33.424,1.327,1.952
20050702,010051,275557,32.969963,-117.420525,18.210,33.355,1.386,2.076
20050702,010121,275587,32.968518,-117.419805,18.246,33.429,1.396,2.097
20050702,010151,275616,32.967071,-117.419085,18.091,33.508,1.386,2.076
20050702,010220,275646,32.965621,-117.418373,18.021,33.488,1.380,2.067
20050702,010251,275677,32.964173,-117.417656,18.051,33.442,1.375,2.060
20050702,010321,275707,32.962710,-117.416970,18.002,33.470,1.380,2.076
20050702,010352,275737,32.961188,-117.416295,17.981,33.462,1.375,2.068
20050702,010422,275768,32.959710,-117.415648,18.045,33.406,1.364,2.048
20050702,010451,275796,32.958233,-117.414995,18.061,33.430,1.343,2.004
20050702,010521,275826,32.956806,-117.414365,18.032,33.454,1.353,2.026
20050702,010551,275857,32.955281,-117.413683,18.101,33.400,1.396,2.118
20050702,010621,275887,32.953858,-117.413042,18.222,33.366,1.444,2.221
20050702,010652,275918,32.952331,-117.412352,18.270,33.391,1.487,2.312
20050702,010721,275947,32.950908,-117.411708,18.294,33.423,1.444,2.215
20050702,010751,275976,32.949430,-117.411040,18.299,33.434,1.476,2.282
20050702,010822,276008,32.947891,-117.410358,18.311,33.435,1.481,2.289
20050702,010852,276037,32.946408,-117.409690,18.365,33.410,1.508,2.345
20050702,010921,276067,32.944970,-117.409057,18.430,33.401,1.535,2.401
20050702,010952,276098,32.943645,-117.408472,18.438,33.434,1.546,2.420
20050702,011022,276128,32.942616,-117.408037,18.383,33.464,1.487,2.286
20050702,011052,276158,32.941680,-117.407638,18.385,33.455,1.476,2.261
20050702,011122,276188,32.940780,-117.407258,18.355,33.459,1.450,2.201
20050702,011152,276217,32.939898,-117.406875,18.368,33.405,1.444,2.188
20050702,011222,276247,32.939018,-117.406517,18.149,33.454,1.214,1.706
20050702,011253,276278,32.938188,-117.406158,18.070,33.418,1.209,1.694
20050702,011323,276308,32.937420,-117.405838,18.107,33.342,1.310,1.899
20050702,011353,276339,32.936660,-117.405513,18.180,33.315,1.337,1.954
20050702,011422,276367,32.935930,-117.405187,18.237,33.350,1.369,2.020
20050702,011453,276399,32.935153,-117.404847,18.284,33.410,1.386,2.054
20050702,011523,276429,32.934403,-117.404522,18.253,33.458,1.327,1.929
20050702,011552,276458,32.933701,-117.404227,18.242,33.463,1.295,1.862
20050702,011622,276488,32.932990,-117.403927,18.242,33.466,1.273,1.818
20050702,011653,276519,32.932268,-117.403610,18.199,33.488,1.225,1.720
20050702,011722,276547,32.931595,-117.403315,18.164,33.485,1.262,1.795
20050702,011753,276579,32.930878,-117.403002,18.192,33.458,1.262,1.795
20050702,011823,276609,32.930175,-117.402693,18.220,33.447,1.273,1.817
20050702,011853,276638,32.929308,-117.402295,18.233,33.457,1.268,1.806
20050702,011922,276668,32.928226,-117.401800,18.233,33.467,1.262,1.796
20050702,011952,276698,32.926850,-117.401187,18.231,33.468,1.295,1.863
20050702,012022,276727,32.925390,-117.400530,18.239,33.464,1.273,1.820
20050702,012053,276759,32.923850,-117.399848,18.234,33.470,1.257,1.789
20050702,012122,276788,32.922408,-117.399208,18.229,33.473,1.241,1.755
20050702,012153,276818,32.920860,-117.398517,18.217,33.472,1.241,1.754
20050702,012223,276849,32.919358,-117.397842,18.232,33.460,1.257,1.786
20050702,012252,276877,32.917853,-117.397172,18.260,33.452,1.241,1.752
20050702,012323,276909,32.916348,-117.396488,18.283,33.453,1.182,1.633
20050702,012353,276939,32.914838,-117.395812,18.311,33.451,1.139,1.547
20050702,012423,276968,32.913328,-117.395135,18.329,33.455,1.096,1.462
20050702,012453,276998,32.911896,-117.394507,18.317,33.473,1.053,1.380
20050702,012523,277029,32.911048,-117.394137,18.296,33.484,1.037,1.349
20050702,012553,277059,32.910601,-117.394053,18.262,33.495,1.015,1.308
20050702,012623,277089,32.910323,-117.394068,18.216,33.496,1.015,1.307
20050702,012653,277119,32.910096,-117.394088,18.197,33.314,1.026,1.326
20050702,012723,277148,32.909856,-117.394110,18.175,33.169,1.047,1.366
20050702,012753,277179,32.909636,-117.394172,18.144,33.255,1.037,1.346
20050702,012824,277209,32.909425,-117.394283,18.129,33.389,1.042,1.356
20050702,012853,277239,32.909265,-117.394397,18.118,33.436,1.042,1.355
20050702,012923,277269,32.909140,-117.394498,18.107,33.454,1.031,1.334
20050702,012954,277300,32.909038,-117.394598,18.125,33.444,1.026,1.323
20050702,013023,277328,32.908946,-117.394682,18.129,33.452,1.037,1.342
20050702,013053,277359,32.908858,-117.394757,18.134,33.454,1.015,1.301
20050702,013123,277389,32.908780,-117.394830,18.145,33.455,1.009,1.290
20050702,013153,277419,32.908713,-117.394898,18.148,33.462,1.009,1.289
20050702,013223,277449,32.908635,-117.394967,18.155,33.462,1.015,1.298
20050702,013253,277478,32.908558,-117.395028,18.157,33.465,1.009,1.287
20050702,013323,277508,32.908481,-117.395090,18.157,33.467,1.009,1.286
20050702,013353,277539,32.908398,-117.395150,18.166,33.459,0.999,1.266
20050702,013423,277569,32.908310,-117.395207,18.185,33.457,1.009,1.285
20050702,013454,277600,32.908211,-117.395260,18.186,33.464,1.004,1.275
20050702,013524,277630,32.908100,-117.395308,18.187,33.467,0.977,1.228
20050702,013553,277658,32.907973,-117.395353,18.194,33.464,0.977,1.229
20050702,013623,277689,32.907836,-117.395387,18.194,33.467,0.983,1.240
20050702,013653,277719,32.907675,-117.395432,18.189,33.470,0.983,1.241
20050702,013723,277749,32.907486,-117.395487,18.183,33.473,0.977,1.232
20050702,013753,277779,32.907306,-117.395593,18.183,33.471,1.004,1.280
20050702,013823,277808,32.907178,-117.395727,18.179,33.471,0.999,1.270
20050702,013853,277838,32.907105,-117.395883,18.177,33.470,0.999,1.269
20050702,013923,277869,32.907085,-117.396028,18.176,33.470,0.999,1.268
20050702,013953,277899,32.907101,-117.396168,18.183,33.464,0.977,1.229
20050702,014023,277929,32.907131,-117.396320,18.193,33.463,0.983,1.238
20050702,014053,277959,32.907143,-117.396558,18.195,33.466,0.993,1.257
20050702,014124,277990,32.907185,-117.396787,18.192,33.470,0.993,1.257
20050702,014153,278018,32.907243,-117.397057,18.183,33.474,0.993,1.256
20050702,014224,278049,32.907270,-117.397298,18.177,33.474,1.015,1.295
20050702,014253,278079,32.907266,-117.397463,18.178,33.470,0.999,1.265
20050702,014323,278109,32.907231,-117.397533,18.174,33.471,1.004,1.275
20050702,014353,278138,32.907155,-117.397525,18.163,33.476,1.015,1.294
20050702,014424,278170,32.907053,-117.397475,18.163,33.469,0.988,1.245
20050702,014453,278199,32.906986,-117.397480,18.171,33.464,0.983,1.236
20050702,014523,278229,32.906980,-117.397522,18.174,33.467,0.972,1.217
20050702,014554,278259,32.907006,-117.397618,18.174,33.467,0.966,1.207
20050702,014623,278289,32.907033,-117.397783,18.176,33.467,0.955,1.188
20050702,014653,278318,32.907046,-117.397997,18.172,33.467,0.966,1.208
20050702,014723,278348,32.907066,-117.398265,18.166,33.470,0.999,1.265
20050702,014753,278379,32.907110,-117.398530,18.163,33.469,0.999,1.265
20050702,014823,278409,32.907171,-117.398813,18.169,33.465,0.993,1.254
20050702,014853,278439,32.907240,-117.399120,18.166,33.469,0.988,1.244
20050702,014924,278470,32.907306,-117.399428,18.164,33.468,0.977,1.223
20050702,014953,278498,32.907365,-117.399705,18.177,33.461,0.983,1.231
20050702,015023,278529,32.907375,-117.399862,18.195,33.456,0.977,1.220
20050702,015054,278559,32.907383,-117.400007,18.206,33.456,0.988,1.239
20050702,015123,278589,32.907390,-117.400130,18.215,33.462,0.983,1.228
20050702,015154,278620,32.907388,-117.400238,18.212,33.469,0.983,1.227
20050702,015223,278648,32.907376,-117.400327,18.209,33.470,0.999,1.255
20050702,015253,278678,32.907360,-117.400408,18.203,33.471,0.999,1.255
20050702,015323,278709,32.907336,-117.400475,18.197,33.471,0.993,1.244
20050702,015354,278739,32.907308,-117.400548,18.195,33.470,0.988,1.234
20050702,015423,278769,32.907283,-117.400608,18.196,33.468,0.988,1.234
20050702,015454,278800,32.907260,-117.400668,18.196,33.467,0.977,1.214
20050702,015523,278828,32.907240,-117.400723,18.195,33.470,0.977,1.214
20050702,015553,278858,32.907218,-117.400778,18.189,33.472,0.972,1.204
20050702,015623,278889,32.907191,-117.400830,18.183,33.473,0.983,1.224
20050702,015654,278919,32.907165,-117.400885,18.178,33.474,0.966,1.195
20050702,015723,278949,32.907138,-117.400937,18.177,33.470,0.966,1.194
20050702,015753,278978,32.907105,-117.400997,18.176,33.468,0.972,1.204
20050702,015824,279010,32.907070,-117.401057,18.183,33.463,0.961,1.184
20050702,015853,279039,32.907033,-117.401110,18.188,33.464,0.961,1.183
20050702,015924,279069,32.906998,-117.401163,18.192,33.466,0.961,1.182
20050702,015953,279099,32.906971,-117.401208,18.187,33.470,0.966,1.191
20050702,020023,279129,32.906940,-117.401262,18.185,33.470,0.950,1.161
20050702,020054,279160,32.906910,-117.401313,18.181,33.470,0.955,1.169
20050702,020123,279188,32.906878,-117.401367,18.183,33.467,0.961,1.178
20050702,020153,279219,32.906851,-117.401415,18.183,33.467,0.950,1.159
20050702,020224,279249,32.906810,-117.401475,18.188,33.464,0.955,1.167
20050702,020253,279279,32.906775,-117.401527,18.195,33.463,0.950,1.157
20050702,020324,279310,32.906741,-117.401583,18.200,33.463,0.934,1.129
20050702,020353,279338,32.906706,-117.401640,18.202,33.466,0.939,1.138
20050702,020423,279368,32.906683,-117.401682,18.198,33.469,0.939,1.137
20050702,020454,279399,32.906653,-117.401727,18.192,33.472,0.917,1.100
20050702,020523,279429,32.906631,-117.401757,18.192,33.468,0.934,1.128
20050702,020553,279459,32.906613,-117.401775,18.198,33.464,0.923,1.109
20050702,020623,279488,32.906590,-117.401798,18.197,33.468,0.923,1.109
20050702,020653,279518,32.906566,-117.401823,18.194,33.469,0.934,1.128
20050702,020724,279550,32.906541,-117.401855,18.194,33.468,0.928,1.118
20050702,020753,279579,32.906516,-117.401887,18.197,33.465,0.923,1.109
20050702,020823,279609,32.906488,-117.401925,18.200,33.467,0.917,1.099
20050702,020853,279639,32.906451,-117.401973,18.203,33.466,0.928,1.117
20050702,020923,279668,32.906416,-117.402023,18.199,33.469,0.923,1.108
20050702,020953,279698,32.906383,-117.402075,18.192,33.471,0.934,1.126
20050702,021023,279729,32.906341,-117.402135,18.187,33.471,0.923,1.107
20050702,021053,279759,32.906303,-117.402200,18.187,33.469,0.923,1.106
20050702,021123,279789,32.906263,-117.402265,18.185,33.469,0.928,1.114
20050702,021153,279819,32.906225,-117.402330,18.187,33.466,0.928,1.114
20050702,021223,279848,32.906190,-117.402393,18.191,33.464,0.923,1.104
20050702,021253,279879,32.906166,-117.402468,18.190,33.467,0.928,1.113
20050702,021323,279909,32.906153,-117.402550,18.192,33.466,0.923,1.103
20050702,021354,279939,32.906146,-117.402653,18.188,33.469,0.928,1.112
20050702,021423,279969,32.906138,-117.402777,18.185,33.468,0.923,1.102
20050702,021454,280000,32.906126,-117.402913,18.187,33.466,0.917,1.092
20050702,021523,280028,32.906116,-117.403057,18.187,33.470,0.928,1.110
20050702,021554,280060,32.906118,-117.403212,18.185,33.470,0.923,1.100
20050702,021623,280089,32.906130,-117.403370,18.185,33.470,0.928,1.109
20050702,021654,280119,32.906148,-117.403530,18.177,33.474,0.928,1.109
20050702,021723,280149,32.906170,-117.403695,18.183,33.469,0.917,1.090
20050702,021754,280180,32.906181,-117.403868,18.189,33.469,0.912,1.080
20050702,021823,280208,32.906198,-117.404040,18.185,33.474,0.912,1.080
20050702,021853,280239,32.906211,-117.404210,18.180,33.475,0.912,1.080
20050702,021924,280269,32.906228,-117.404385,18.180,33.472,0.923,1.098
20050702,021953,280299,32.906248,-117.404557,18.181,33.470,0.907,1.071
20050702,022024,280330,32.906265,-117.404745,18.197,33.461,0.912,1.079
20050702,022053,280358,32.906280,-117.404937,18.203,33.468,0.907,1.070
20050702,022123,280389,32.906295,-117.405123,18.201,33.473,0.896,1.052
20050702,022153,280419,32.906313,-117.405312,18.196,33.471,0.901,1.061
20050702,022223,280449,32.906325,-117.405472,18.201,33.470,0.907,1.069
20050702,022253,280479,32.906335,-117.405625,18.201,33.470,0.896,1.051
20050702,022323,280508,32.906345,-117.405760,18.201,33.472,0.912,1.078
20050702,022354,280540,32.906350,-117.405887,18.202,33.471,0.891,1.042
20050702,022423,280569,32.906346,-117.406003,18.200,33.472,0.907,1.069
20050702,022454,280599,32.906341,-117.406113,18.201,33.470,0.891,1.041
20050702,022523,280629,32.906328,-117.406223,18.202,33.472,0.907,1.068
20050702,022554,280660,32.906313,-117.406327,18.201,33.472,0.896,1.050
20050702,022624,280690,32.906291,-117.406433,18.202,33.471,0.901,1.059
20050702,022653,280718,32.906273,-117.406533,18.199,33.472,0.891,1.041
20050702,022724,280749,32.906256,-117.406630,18.197,33.472,0.885,1.032
20050702,022754,280779,32.906240,-117.406723,18.199,33.470,0.885,1.031
20050702,022823,280809,32.906225,-117.406817,18.199,33.470,0.880,1.022
20050702,022853,280838,32.906208,-117.406903,18.195,33.475,0.880,1.022
20050702,022924,280870,32.906190,-117.406990,18.194,33.472,0.891,1.040
20050702,022954,280900,32.906171,-117.407072,18.191,33.473,0.885,1.031
20050702,023024,280929,32.906143,-117.407160,18.190,33.472,0.885,1.031
20050702,023054,280959,32.906121,-117.407240,18.186,33.473,0.880,1.022
20050702,023123,280989,32.906101,-117.407320,18.183,33.473,0.880,1.021
20050702,023154,281020,32.906080,-117.407400,18.180,33.474,0.880,1.021
20050702,023224,281050,32.906073,-117.407478,18.178,33.472,0.880,1.021
20050702,023254,281080,32.906068,-117.407542,18.177,33.472,0.880,1.021
20050702,023324,281109,32.906055,-117.407618,18.177,33.471,0.880,1.021
20050702,023353,281139,32.906041,-117.407693,18.172,33.473,0.864,0.994
20050702,023424,281170,32.906021,-117.407775,18.169,33.473,0.869,1.002
20050702,023454,281200,32.906001,-117.407848,18.164,33.474,0.874,1.011
20050702,023524,281230,32.905973,-117.407932,18.162,33.473,0.858,0.985
20050702,023554,281259,32.905946,-117.408012,18.156,33.475,0.853,0.975
20050702,023623,281289,32.905920,-117.408097,18.154,33.473,0.869,1.001
20050702,023654,281320,32.905895,-117.408185,18.153,33.473,0.858,0.984
20050702,023724,281350,32.905871,-117.408275,18.148,33.473,0.858,0.984
20050702,023754,281380,32.905855,-117.408357,18.149,33.472,0.842,0.957
20050702,023824,281410,32.905831,-117.408442,18.147,33.471,0.853,0.975
20050702,023854,281439,32.905813,-117.408518,18.147,33.471,0.836,0.948
20050702,023923,281469,32.905798,-117.408592,18.146,33.471,0.847,0.965
20050702,023954,281500,32.905786,-117.408668,18.142,33.473,0.847,0.965
20050702,024024,281530,32.905775,-117.408738,18.134,33.477,0.853,0.974
20050702,024054,281560,32.905763,-117.408812,18.124,33.479,0.831,0.939
20050702,024124,281589,32.905750,-117.408892,18.119,33.476,0.836,0.948
20050702,024154,281619,32.905738,-117.408970,18.108,33.477,0.831,0.939
20050702,024224,281650,32.905726,-117.409048,18.136,33.455,0.825,0.930
20050702,024254,281680,32.905711,-117.409137,18.163,33.452,0.831,0.938
20050702,024325,281710,32.905696,-117.409228,18.181,33.457,0.825,0.930
20050702,024354,281740,32.905688,-117.409308,18.184,33.466,0.831,0.938
20050702,024424,281769,32.905676,-117.409385,18.181,33.470,0.825,0.929
20050702,024455,281801,32.905661,-117.409470,18.177,33.474,0.836,0.947
20050702,024524,281830,32.905645,-117.409553,18.181,33.470,0.842,0.955
20050702,024555,281860,32.905625,-117.409635,18.194,33.464,0.853,0.973
20050702,024624,281890,32.905603,-117.409720,18.201,33.467,0.847,0.964